sat.trackr.live / text

‹ back to catalog

STARLINK-3401

NORAD 51465 · 2022-010K

PAYLOAD ACTIVE UNKNOWN

§ Identity

Operator
Country
US
Launch date
2022-02-03
Launch site
AFETR
Launch vehicle
Mass (kg)
RCS (m²)

Purposes: comms

External: N2YO · Heavens-Above · Gunter

§ Orbital elements

Epoch: 2026-05-24T19:10:13.470528Z

Period
95.44 min
Inclination
53.2142°
Eccentricity
0.0001208
Mean motion
15.08840119 rev/d
Perigee alt
538.9 km
Apogee alt
540.6 km
Semi-major
6,917.9 km
B*
3.7355e-5
RAAN
297.4544°
Arg perigee
88.2921°
Mean anomaly
271.8210°
Rev number
23,881

§ Raw data

STARLINK-34011 51465U 22010K   26144.79876702  .00000307  00000+0  37355-4 0  99952 51465  53.2142 297.4544 0001208  88.2921 271.8210 15.08840119238816

JSON: /api/v1/satellites/51465 · /tle

For live sub-satellite position, see the globe view (requires WebGL).

§ Visibility from observer

Set your observer location to see the next 7 days of passes ≥ 10°. The values pass through the URL so the page stays shareable.

No JS? Fill the form by hand. The geolocation button needs JavaScript.